| time (UTC) | temp F | wind direction | speed MPH | gust MPH | rain 1hr in | rain 24hr in | rain mn in | humidity % | barometer mb |
| 20260506212519 | 67 | 315 | 2.0 | 5.0 | 0.01 | 0.05 | 0.05 | 100 | 1005.5 |
| 20260506211731 | 67 | 225 | 1.0 | 3.0 | 0.01 | 0.05 | 0.05 | 100 | 1005.3 |
| 20260506210519 | 67 | 225 | 2.0 | 5.0 | 0.00 | 0.04 | 0.04 | 100 | 1005.0 |
| 20260506205519 | 67 | 225 | 2.0 | 5.0 | 0.00 | 0.04 | 0.04 | 100 | 1005.1 |
| 20260506204519 | 67 | 225 | 4.0 | 8.0 | 0.00 | 0.04 | 0.04 | 100 | 1005.2 |
| 20260506203519 | 67 | 203 | 4.0 | 9.0 | 0.00 | 0.04 | 0.04 | 100 | 1005.1 |
| 20260506202519 | 67 | 270 | 3.0 | 8.0 | 0.00 | 0.04 | 0.04 | 100 | 1004.9 |
| 20260506201519 | 67 | 203 | 4.0 | 7.0 | 0.00 | 0.04 | 0.04 | 100 | 1005.0 |
| 20260506200519 | 67 | 270 | 5.0 | 13.0 | 0.00 | 0.04 | 0.04 | 100 | 1005.0 |
| 20260506195519 | 67 | 225 | 3.0 | 7.0 | 0.00 | 0.04 | 0.04 | 100 | 1004.9 |
| 20260506194520 | 67 | 270 | 4.0 | 9.0 | 0.00 | 0.04 | 0.04 | 100 | 1005.0 |
| 20260506193731 | 66 | 248 | 4.0 | 9.0 | 0.00 | 0.04 | 0.04 | 100 | 1005.0 |
| 20260506192519 | 65 | 270 | 3.0 | 8.0 | 0.00 | 0.04 | 0.04 | 100 | 1005.2 |
| 20260506191519 | 65 | 203 | 2.0 | 7.0 | 0.00 | 0.04 | 0.04 | 100 | 1005.3 |
| 20260506190520 | 65 | 225 | 2.0 | 5.0 | 0.00 | 0.04 | 0.04 | 100 | 1005.3 |
| 20260506185519 | 65 | 225 | 3.0 | 6.0 | 0.00 | 0.04 | 0.04 | 100 | 1005.3 |
| 20260506184520 | 64 | 225 | 4.0 | 9.0 | 0.00 | 0.04 | 0.04 | 100 | 1005.3 |
| 20260506183520 | 64 | 180 | 3.0 | 6.0 | 0.01 | 0.04 | 0.04 | 100 | 1005.4 |
| 20260506182519 | 63 | 158 | 4.0 | 7.0 | 0.01 | 0.04 | 0.04 | 100 | 1005.5 |
| 20260506181519 | 64 | 203 | 3.0 | 7.0 | 0.01 | 0.04 | 0.04 | 100 | 1005.5 |
| 20260506180520 | 63 | 203 | 5.0 | 11.0 | 0.01 | 0.04 | 0.04 | 100 | 1005.4 |
| 20260506175519 | 63 | 225 | 4.0 | 9.0 | 0.01 | 0.04 | 0.04 | 100 | 1005.5 |
| 20260506174519 | 62 | 248 | 4.0 | 8.0 | 0.01 | 0.04 | 0.04 | 100 | 1005.5 |
| 20260506173520 | 61 | 203 | 2.0 | 5.0 | 0.00 | 0.03 | 0.03 | 100 | 1005.4 |
| 20260506172519 | 61 | 203 | 1.0 | 5.0 | 0.00 | 0.03 | 0.03 | 100 | 1005.5 |
| 20260506171519 | 61 | 203 | 2.0 | 5.0 | 0.00 | 0.03 | 0.03 | 100 | 1005.6 |
| 20260506170519 | 61 | 203 | 2.0 | 5.0 | 0.00 | 0.03 | 0.03 | 100 | 1005.6 |
| 20260506165520 | 61 | 203 | 2.0 | 5.0 | 0.00 | 0.03 | 0.03 | 100 | 1005.6 |
| 20260506164520 | 61 | 203 | 2.0 | 5.0 | 0.00 | 0.03 | 0.03 | 100 | 1005.6 |
| 20260506163519 | 61 | 203 | 2.0 | 5.0 | 0.01 | 0.03 | 0.03 | 100 | 1005.6 |
| 20260506162520 | 60 | 203 | 4.0 | 7.0 | 0.01 | 0.03 | 0.03 | 100 | 1005.6 |
| 20260506161520 | 60 | 203 | 4.0 | 7.0 | 0.01 | 0.03 | 0.03 | 100 | 1005.7 |
| 20260506160520 | 60 | 203 | 4.0 | 7.0 | 0.01 | 0.03 | 0.03 | 100 | 1005.7 |
| 20260506155520 | 60 | 225 | 4.0 | 7.0 | 0.01 | 0.03 | 0.03 | 100 | 1005.6 |
| 20260506154946 | 60 | 203 | 2.0 | 7.0 | 0.01 | 0.03 | 0.03 | 100 | 1005.6 |
| 20260506153520 | 60 | 203 | 4.0 | 7.0 | 0.00 | 0.02 | 0.02 | 100 | 1005.5 |
| 20260506152519 | 60 | 203 | 4.0 | 8.0 | 0.00 | 0.02 | 0.02 | 100 | 1005.5 |
| 20260506151532 | 60 | 203 | 5.0 | 10.0 | 0.01 | 0.02 | 0.02 | 100 | 1005.4 |
| 20260506150519 | 60 | 180 | 5.0 | 11.0 | 0.01 | 0.02 | 0.02 | 100 | 1005.2 |
| 20260506145520 | 60 | 203 | 4.0 | 7.0 | 0.01 | 0.02 | 0.02 | 100 | 1005.4 |
| 20260506144519 | 60 | 180 | 4.0 | 7.0 | 0.01 | 0.02 | 0.02 | 100 | 1005.6 |
| 20260506143519 | 60 | 203 | 5.0 | 11.0 | 0.01 | 0.02 | 0.02 | 100 | 1005.7 |
| 20260506142520 | 60 | 135 | 2.0 | 5.0 | 0.01 | 0.02 | 0.02 | 100 | 1005.9 |
| 20260506141520 | 60 | 180 | 4.0 | 12.0 | 0.00 | 0.01 | 0.01 | 100 | 1006.1 |
| 20260506140520 | 61 | 180 | 5.0 | 14.0 | 0.00 | 0.01 | 0.01 | 100 | 1005.9 |
| 20260506135520 | 61 | 203 | 4.0 | 10.0 | 0.01 | 0.01 | 0.01 | 100 | 1005.8 |
| 20260506134729 | 61 | 180 | 4.0 | 8.0 | 0.01 | 0.01 | 0.01 | 100 | 1005.6 |
| 20260506133519 | 61 | 158 | 3.0 | 6.0 | 0.01 | 0.01 | 0.01 | 100 | 1005.6 |
| 20260506132520 | 61 | 203 | 4.0 | 7.0 | 0.01 | 0.01 | 0.01 | 100 | 1005.7 |
| 20260506131520 | 61 | 203 | 2.0 | 6.0 | 0.01 | 0.01 | 0.01 | 100 | 1005.7 |
| 20260506130520 | 61 | 203 | 2.0 | 5.0 | 0.01 | 0.01 | 0.01 | 100 | 1006.0 |
| 20260506125519 | 61 | 0.0 | 2.0 | 0.00 | 0.00 | 0.00 | 100 | 1006.1 | |
| 20260506124520 | 61 | 0.0 | 1.0 | 0.00 | 0.00 | 0.00 | 100 | 1005.9 | |
| 20260506123520 | 61 | 0.0 | 2.0 | 0.00 | 0.00 | 0.00 | 100 | 1006.1 | |
| 20260506122520 | 61 | 0.0 | 0.0 | 0.00 | 0.00 | 0.00 | 100 | 1006.2 | |
| 20260506121520 | 62 | 0.0 | 2.0 | 0.00 | 0.00 | 0.00 | 100 | 1006.3 | |
| 20260506120520 | 62 | 0.0 | 0.0 | 0.00 | 0.00 | 0.00 | 100 | 1006.5 | |
| 20260506115520 | 62 | 203 | 3.0 | 6.0 | 0.00 | 0.00 | 0.00 | 2 | 1006.5 |
| 20260506114520 | 63 | 203 | 3.0 | 7.0 | 0.00 | 0.00 | 0.00 | 22 | 1006.4 |
| 20260506113520 | 63 | 203 | 3.0 | 7.0 | 0.00 | 0.00 | 0.00 | 37 | 1006.3 |
| 20260506112519 | 64 | 203 | 5.0 | 9.0 | 0.00 | 0.00 | 0.00 | 49 | 1006.1 |
| 20260506111520 | 65 | 203 | 6.0 | 10.0 | 0.00 | 0.00 | 0.00 | 57 | 1005.9 |
| 20260506110520 | 65 | 225 | 5.0 | 10.0 | 0.00 | 0.00 | 0.00 | 60 | 1005.8 |
| 20260506105520 | 65 | 180 | 6.0 | 13.0 | 0.00 | 0.00 | 0.00 | 61 | 1005.5 |
| 20260506104520 | 66 | 203 | 5.0 | 12.0 | 0.00 | 0.00 | 0.00 | 62 | 1005.6 |
| 20260506103520 | 66 | 180 | 6.0 | 13.0 | 0.00 | 0.00 | 0.00 | 62 | 1005.4 |
| 20260506102520 | 66 | 225 | 5.0 | 13.0 | 0.00 | 0.00 | 0.00 | 62 | 1005.4 |
| 20260506101520 | 66 | 180 | 5.0 | 10.0 | 0.00 | 0.00 | 0.00 | 62 | 1005.3 |
| 20260506100520 | 66 | 158 | 5.0 | 11.0 | 0.00 | 0.00 | 0.00 | 61 | 1005.0 |
| 20260506095520 | 66 | 180 | 5.0 | 10.0 | 0.00 | 0.00 | 0.00 | 61 | 1005.2 |
| 20260506094520 | 67 | 180 | 7.0 | 13.0 | 0.00 | 0.00 | 0.00 | 61 | 1005.2 |
| 20260506093520 | 67 | 180 | 7.0 | 13.0 | 0.00 | 0.00 | 0.00 | 61 | 1005.0 |
| 20260506092520 | 67 | 180 | 7.0 | 14.0 | 0.00 | 0.00 | 0.00 | 61 | 1005.0 |
| 20260506091734 | 67 | 203 | 7.0 | 13.0 | 0.00 | 0.00 | 0.00 | 60 | 1005.2 |
| 20260506090520 | 67 | 203 | 8.0 | 18.0 | 0.00 | 0.00 | 0.00 | 60 | 1005.4 |
| 20260506085520 | 67 | 180 | 8.0 | 16.0 | 0.00 | 0.00 | 0.00 | 60 | 1005.5 |
| 20260506084520 | 67 | 180 | 8.0 | 17.0 | 0.00 | 0.00 | 0.00 | 60 | 1005.6 |
| 20260506083733 | 67 | 203 | 7.0 | 15.0 | 0.00 | 0.00 | 0.00 | 59 | 1005.6 |
| 20260506082520 | 68 | 180 | 8.0 | 17.0 | 0.00 | 0.00 | 0.00 | 59 | 1005.5 |
| 20260506081520 | 68 | 180 | 8.0 | 17.0 | 0.00 | 0.00 | 0.00 | 58 | 1005.4 |
| 20260506080521 | 68 | 180 | 6.0 | 14.0 | 0.00 | 0.00 | 0.00 | 58 | 1005.6 |
| 20260506073520 | 68 | 180 | 6.0 | 11.0 | 0.00 | 0.00 | 0.00 | 56 | 1005.7 |
| 20260506072734 | 68 | 203 | 5.0 | 10.0 | 0.00 | 0.00 | 0.00 | 55 | 1005.9 |
| 20260506071520 | 67 | 203 | 5.0 | 8.0 | 0.00 | 0.00 | 0.00 | 55 | 1005.9 |
| 20260506070520 | 68 | 203 | 4.0 | 9.0 | 0.00 | 0.00 | 0.00 | 54 | 1005.9 |
| 20260506061520 | 69 | 203 | 4.0 | 9.0 | 0.00 | 0.00 | 0.00 | 48 | 1006.6 |
| 20260506060732 | 69 | 203 | 4.0 | 9.0 | 0.00 | 0.00 | 0.00 | 48 | 1006.6 |
| 20260506050520 | 69 | 180 | 3.0 | 7.0 | 0.00 | 0.00 | 0.00 | 45 | 1007.1 |
| 20260506044521 | 70 | 203 | 5.0 | 9.0 | 0.00 | 0.00 | 0.00 | 44 | 1007.1 |
| 20260506043520 | 70 | 180 | 6.0 | 10.0 | 0.00 | 0.00 | 0.00 | 44 | 1007.2 |
| 20260506042731 | 70 | 203 | 6.0 | 11.0 | 0.00 | 0.00 | 0.00 | 45 | 1007.2 |
| 20260506041732 | 70 | 203 | 8.0 | 15.0 | 0.00 | 0.00 | 0.00 | 44 | 1007.1 |
| 20260506040733 | 70 | 203 | 7.0 | 15.0 | 0.00 | 0.00 | 0.00 | 44 | 1007.0 |
| 20260506035519 | 70 | 180 | 7.0 | 13.0 | 0.00 | 0.00 | 0.00 | 43 | 1007.0 |
| 20260506034520 | 71 | 203 | 6.0 | 12.0 | 0.00 | 0.00 | 0.00 | 43 | 1007.1 |
| 20260506033519 | 71 | 203 | 5.0 | 11.0 | 0.00 | 0.00 | 0.00 | 43 | 1007.0 |
| 20260506032520 | 70 | 203 | 5.0 | 9.0 | 0.00 | 0.00 | 0.00 | 44 | 1007.0 |
| 20260506031519 | 70 | 180 | 5.0 | 10.0 | 0.00 | 0.00 | 0.00 | 44 | 1007.0 |
| 20260506030519 | 70 | 203 | 5.0 | 10.0 | 0.00 | 0.00 | 0.00 | 45 | 1007.0 |
| 20260506025519 | 69 | 180 | 3.0 | 7.0 | 0.00 | 0.00 | 0.00 | 47 | 1006.9 |
| 20260506024519 | 68 | 203 | 1.0 | 3.0 | 0.00 | 0.00 | 0.00 | 50 | 1007.0 |
| 20260506023520 | 67 | 203 | 1.0 | 4.0 | 0.00 | 0.00 | 0.00 | 52 | 1007.1 |
| 20260506022520 | 67 | 0.0 | 0.0 | 0.00 | 0.00 | 0.00 | 51 | 1007.0 | |
| 20260506021519 | 67 | 0.0 | 0.0 | 0.00 | 0.00 | 0.00 | 51 | 1007.0 | |
| 20260506020520 | 68 | 0.0 | 0.0 | 0.00 | 0.00 | 0.00 | 50 | 1007.0 | |
| 20260506015520 | 68 | 0.0 | 0.0 | 0.00 | 0.00 | 0.00 | 49 | 1006.9 | |
| 20260506014520 | 69 | 0.0 | 0.0 | 0.00 | 0.00 | 0.00 | 48 | 1006.8 | |
| 20260506013732 | 70 | 0.0 | 0.0 | 0.00 | 0.00 | 0.00 | 47 | 1006.8 | |
| 20260506013159 | 71 | 0.0 | 2.0 | 0.00 | 0.00 | 0.00 | 45 | 1006.7 | |
| 20260506011520 | 72 | 203 | 1.0 | 3.0 | 0.00 | 0.00 | 0.00 | 43 | 1006.5 |
| 20260506010520 | 73 | 0.0 | 2.0 | 0.00 | 0.00 | 0.00 | 42 | 1006.4 | |
| 20260506005520 | 74 | 203 | 1.0 | 3.0 | 0.00 | 0.00 | 0.00 | 41 | 1006.4 |
| 20260506004520 | 74 | 203 | 2.0 | 4.0 | 0.00 | 0.00 | 0.00 | 40 | 1006.4 |
| 20260506003520 | 75 | 203 | 2.0 | 3.0 | 0.00 | 0.00 | 0.00 | 40 | 1006.2 |
| 20260506002520 | 75 | 203 | 2.0 | 5.0 | 0.00 | 0.00 | 0.00 | 39 | 1006.1 |
| 20260506001520 | 76 | 203 | 5.0 | 10.0 | 0.00 | 0.00 | 0.00 | 38 | 1006.1 |
| 20260506000520 | 76 | 203 | 5.0 | 12.0 | 0.00 | 0.00 | 0.00 | 38 | 1005.8 |
| 20260505235519 | 76 | 203 | 4.0 | 8.0 | 0.00 | 0.00 | 0.00 | 39 | 1005.7 |
| 20260505234520 | 76 | 225 | 4.0 | 9.0 | 0.00 | 0.00 | 0.00 | 38 | 1005.8 |
| 20260505233520 | 77 | 180 | 5.0 | 7.0 | 0.00 | 0.00 | 0.00 | 39 | 1005.8 |
| 20260505232520 | 77 | 203 | 6.0 | 12.0 | 0.00 | 0.00 | 0.00 | 39 | 1005.7 |
| 20260505231520 | 77 | 225 | 7.0 | 12.0 | 0.00 | 0.00 | 0.00 | 39 | 1005.7 |
| 20260505230520 | 78 | 180 | 4.0 | 14.0 | 0.00 | 0.00 | 0.00 | 41 | 1005.5 |
| 20260505225520 | 78 | 180 | 6.0 | 15.0 | 0.00 | 0.00 | 0.00 | 39 | 1005.4 |
| 20260505224520 | 79 | 158 | 7.0 | 11.0 | 0.00 | 0.00 | 0.00 | 39 | 1005.3 |
| 20260505223520 | 79 | 203 | 7.0 | 15.0 | 0.00 | 0.00 | 0.00 | 39 | 1005.3 |
| 20260505222520 | 79 | 180 | 7.0 | 14.0 | 0.00 | 0.00 | 0.00 | 39 | 1005.1 |
| 20260505221520 | 79 | 203 | 7.0 | 16.0 | 0.00 | 0.00 | 0.00 | 38 | 1005.2 |
| 20260505220520 | 80 | 180 | 7.0 | 12.0 | 0.00 | 0.00 | 0.00 | 38 | 1005.3 |
| 20260505215519 | 82 | 225 | 5.0 | 12.0 | 0.00 | 0.00 | 0.00 | 36 | 1005.3 |
| 20260505214734 | 81 | 158 | 6.0 | 11.0 | 0.00 | 0.00 | 0.00 | 40 | 1005.4 |
| 20260505213519 | 80 | 158 | 7.0 | 15.0 | 0.00 | 0.00 | 0.00 | 38 | 1005.2 |